RYR47FF LEPA-LPPR

Flight info

Callsign RYR47FF
Flight time 1h 28m
Altitude 35000
Route EPAMA N733 ZMR L155 ADORO DCT INKIT
Aircraft A320/M-SDE3FGHIRWY/LB1

Departure

Time 2026-05-08 07:16
Airport Palma de Mallorca Airport (LEPA)

Arrival

Time 2026-05-08 08:45
Airport Francisco de Sá Carneiro Airport (LPPR)
Time Latitude Longitude Altitude Speed Heading
2026-05-08 06:38 39.55066 2.73579 39 ft 0 kts 164°
2026-05-08 07:06 39.55083 2.73574 36 ft 4 kts 172°
2026-05-08 07:06 39.55108 2.73568 37 ft 2 kts 164°
2026-05-08 07:06 39.55130 2.73556 36 ft 4 kts 135°
2026-05-08 07:07 39.55141 2.73529 37 ft 4 kts 83°
2026-05-08 07:07 39.55133 2.73497 38 ft 3 kts 59°
2026-05-08 07:07 39.55119 2.73468 36 ft 4 kts 59°
2026-05-08 07:07 39.55116 2.73462 37 ft 0 kts 59°
2026-05-08 07:11 39.55127 2.73485 13 ft 9 kts 58°
2026-05-08 07:11 39.55175 2.73592 38 ft 16 kts 65°
2026-05-08 07:11 39.55178 2.73708 38 ft 11 kts 81°
2026-05-08 07:11 39.55168 2.73747 38 ft 0 kts 121°
2026-05-08 07:12 39.55167 2.73749 37 ft 2 kts 126°
2026-05-08 07:12 39.55130 2.73781 38 ft 11 kts 149°
2026-05-08 07:12 39.55035 2.73853 37 ft 21 kts 149°
2026-05-08 07:12 39.54904 2.73955 38 ft 23 kts 149°
2026-05-08 07:13 39.54790 2.73954 38 ft 16 kts 208°
2026-05-08 07:13 39.54694 2.73924 38 ft 14 kts 229°
2026-05-08 07:13 39.54637 2.73804 38 ft 17 kts 239°
2026-05-08 07:13 39.54576 2.73692 38 ft 14 kts 216°
2026-05-08 07:14 39.54495 2.73716 38 ft 12 kts 150°
2026-05-08 07:14 39.54424 2.73774 38 ft 9 kts 134°
2026-05-08 07:14 39.54430 2.73810 38 ft 0 kts 60°
2026-05-08 07:15 39.54483 2.73922 38 ft 49 kts 58°
2026-05-08 07:16 39.54787 2.74566 38 ft 116 kts 58°
2026-05-08 07:16 39.55296 2.75634 226 ft 149 kts 59°
2026-05-08 07:16 39.55853 2.76781 845 ft 152 kts 57°
2026-05-08 07:16 39.56441 2.77958 1477 ft 160 kts 60°
2026-05-08 07:17 39.57057 2.79280 1818 ft 182 kts 62°
2026-05-08 07:17 39.57735 2.80772 2191 ft 203 kts 62°
2026-05-08 07:17 39.58449 2.82358 2999 ft 201 kts 62°
2026-05-08 07:17 39.59161 2.83920 3826 ft 202 kts 62°
2026-05-08 07:18 39.59886 2.85531 4484 ft 211 kts 63°
2026-05-08 07:18 39.60612 2.87217 5161 ft 218 kts 63°
2026-05-08 07:18 39.61377 2.88952 5837 ft 225 kts 63°
2026-05-08 07:18 39.62149 2.90738 6566 ft 229 kts 63°
2026-05-08 07:19 39.62951 2.92534 7318 ft 232 kts 60°
2026-05-08 07:19 39.64075 2.94048 8001 ft 242 kts 35°
2026-05-08 07:19 39.65755 2.94740 8259 ft 270 kts 359°
2026-05-08 07:19 39.67585 2.94019 8714 ft 287 kts 324°
2026-05-08 07:20 39.68886 2.92048 9325 ft 292 kts 291°
2026-05-08 07:20 39.69205 2.89484 10102 ft 292 kts 264°
2026-05-08 07:20 39.69001 2.86787 10485 ft 311 kts 262°
2026-05-08 07:20 39.68684 2.83912 10779 ft 330 kts 260°
2026-05-08 07:21 39.68357 2.80938 11480 ft 335 kts 262°
2026-05-08 07:21 39.68080 2.77961 12254 ft 337 kts 263°
2026-05-08 07:21 39.67856 2.74923 13027 ft 340 kts 265°
2026-05-08 07:21 39.67675 2.71849 13787 ft 343 kts 266°
2026-05-08 07:22 39.67522 2.68755 14478 ft 344 kts 266°
2026-05-08 07:22 39.67381 2.65649 15179 ft 345 kts 266°
2026-05-08 07:22 39.67242 2.62533 15922 ft 346 kts 266°
2026-05-08 07:22 39.67426 2.59409 16646 ft 350 kts 282°
2026-05-08 07:23 39.68139 2.56379 17388 ft 352 kts 285°
2026-05-08 07:23 39.68888 2.53352 18093 ft 353 kts 285°
2026-05-08 07:23 39.69646 2.50311 18726 ft 355 kts 285°
2026-05-08 07:23 39.70408 2.47248 19284 ft 358 kts 285°
2026-05-08 07:24 39.71175 2.44159 19814 ft 361 kts 285°
2026-05-08 07:24 39.71948 2.41038 20337 ft 365 kts 285°
2026-05-08 07:24 39.72726 2.37887 20863 ft 368 kts 285°
2026-05-08 07:24 39.73512 2.34710 21385 ft 371 kts 285°
2026-05-08 07:25 39.74301 2.31500 21914 ft 374 kts 285°
2026-05-08 07:25 39.75091 2.28264 22423 ft 378 kts 284°
2026-05-08 07:25 39.76694 2.21688 23365 ft 385 kts 284°
2026-05-08 07:26 39.77507 2.18352 23790 ft 388 kts 284°
2026-05-08 07:26 39.78325 2.14997 24205 ft 390 kts 284°
2026-05-08 07:26 39.79147 2.11624 24634 ft 392 kts 284°
2026-05-08 07:26 39.79974 2.08235 25036 ft 394 kts 284°
2026-05-08 07:27 39.80805 2.04834 25440 ft 395 kts 284°
2026-05-08 07:27 39.81636 2.01420 25842 ft 396 kts 284°
2026-05-08 07:27 39.82467 1.97995 26233 ft 398 kts 284°
2026-05-08 07:27 39.83297 1.94557 26623 ft 399 kts 284°
2026-05-08 07:28 39.84128 1.91108 27010 ft 400 kts 284°
2026-05-08 07:28 39.84964 1.87638 27357 ft 403 kts 283°
2026-05-08 07:28 39.85801 1.84152 27708 ft 405 kts 283°
2026-05-08 07:28 39.86640 1.80648 28058 ft 406 kts 283°
2026-05-08 07:29 39.87484 1.77132 28414 ft 408 kts 283°
2026-05-08 07:29 39.88331 1.73602 28758 ft 409 kts 283°
2026-05-08 07:29 39.89178 1.70062 29091 ft 410 kts 283°
2026-05-08 07:29 39.90024 1.66504 29416 ft 412 kts 283°
2026-05-08 07:30 39.90873 1.62940 29724 ft 413 kts 283°
2026-05-08 07:30 39.91727 1.59359 30022 ft 414 kts 283°
2026-05-08 07:30 39.92584 1.55772 30275 ft 416 kts 283°
2026-05-08 07:30 39.93444 1.52170 30525 ft 417 kts 282°
2026-05-08 07:31 39.94303 1.48553 30712 ft 419 kts 282°
2026-05-08 07:31 39.95155 1.44961 30908 ft 421 kts 282°
2026-05-08 07:31 39.96019 1.41312 31172 ft 421 kts 282°
2026-05-08 07:31 39.96878 1.37674 31494 ft 419 kts 282°
2026-05-08 07:32 39.97733 1.34043 31800 ft 418 kts 282°
2026-05-08 07:32 39.98585 1.30427 32119 ft 417 kts 282°
2026-05-08 07:32 39.99434 1.26817 32436 ft 416 kts 282°
2026-05-08 07:32 40.00278 1.23222 32740 ft 414 kts 282°
2026-05-08 07:33 40.01120 1.19631 33057 ft 413 kts 281°
2026-05-08 07:33 40.01957 1.16048 33370 ft 412 kts 281°
2026-05-08 07:33 40.02791 1.12478 33681 ft 412 kts 281°
2026-05-08 07:33 40.03625 1.08895 33913 ft 413 kts 281°
2026-05-08 07:34 40.04459 1.05309 34161 ft 413 kts 281°
2026-05-08 07:34 40.05289 1.01726 34416 ft 412 kts 281°
2026-05-08 07:34 40.06117 0.98146 34674 ft 411 kts 281°
2026-05-08 07:34 40.06941 0.94577 34915 ft 411 kts 281°
2026-05-08 07:35 40.07764 0.91010 34995 ft 409 kts 281°
2026-05-08 07:35 40.09404 0.83935 35005 ft 406 kts 281°
2026-05-08 07:36 40.11031 0.76879 35006 ft 406 kts 281°
2026-05-08 07:36 40.12649 0.69786 35008 ft 409 kts 280°
2026-05-08 07:37 40.14278 0.62653 35008 ft 410 kts 280°
2026-05-08 07:37 40.15911 0.55514 35008 ft 410 kts 280°
2026-05-08 07:38 40.17534 0.48371 35009 ft 410 kts 280°
2026-05-08 07:38 40.19145 0.41224 35015 ft 410 kts 280°
2026-05-08 07:39 40.20761 0.34068 35026 ft 411 kts 280°
2026-05-08 07:39 40.22380 0.26889 35009 ft 412 kts 280°
2026-05-08 07:40 40.23993 0.19684 35011 ft 413 kts 280°
2026-05-08 07:40 40.25596 0.12512 35034 ft 414 kts 280°
2026-05-08 07:41 40.27207 0.05280 35032 ft 414 kts 280°
2026-05-08 07:41 40.28815 -0.01961 35007 ft 414 kts 279°
2026-05-08 07:42 40.30421 -0.09225 34980 ft 416 kts 279°
2026-05-08 07:42 40.32022 -0.16514 34965 ft 417 kts 279°
2026-05-08 07:43 40.33364 -0.22634 34967 ft 418 kts 279°
2026-05-08 07:43 40.34973 -0.29956 34965 ft 418 kts 279°
2026-05-08 07:44 40.36582 -0.37285 34970 ft 418 kts 279°
2026-05-08 07:44 40.38175 -0.44573 34975 ft 419 kts 279°
2026-05-08 07:45 40.39774 -0.51916 34985 ft 419 kts 279°
2026-05-08 07:45 40.41363 -0.59271 34993 ft 419 kts 279°
2026-05-08 07:46 40.42945 -0.66630 35004 ft 419 kts 279°
2026-05-08 07:46 40.44524 -0.73997 35010 ft 419 kts 279°
2026-05-08 07:47 40.46105 -0.81372 35024 ft 420 kts 279°
2026-05-08 07:47 40.47688 -0.88772 35017 ft 421 kts 279°
2026-05-08 07:48 40.49259 -0.96189 35034 ft 422 kts 279°
2026-05-08 07:48 40.50832 -1.03616 35034 ft 422 kts 279°
2026-05-08 07:49 40.52402 -1.11049 35034 ft 422 kts 279°
2026-05-08 07:49 40.53968 -1.18489 35039 ft 423 kts 279°
2026-05-08 07:50 40.55536 -1.25961 35017 ft 424 kts 279°
2026-05-08 07:50 40.57099 -1.33450 35013 ft 425 kts 278°
2026-05-08 07:51 40.58662 -1.40952 35011 ft 425 kts 278°
2026-05-08 07:51 40.60225 -1.48470 35011 ft 426 kts 278°
2026-05-08 07:52 40.61774 -1.55997 35010 ft 427 kts 279°
2026-05-08 07:52 40.63333 -1.63556 34993 ft 429 kts 279°
2026-05-08 07:53 40.64884 -1.71145 34986 ft 430 kts 279°
2026-05-08 07:53 40.66438 -1.78761 34987 ft 431 kts 279°
2026-05-08 07:54 40.67997 -1.86382 34986 ft 431 kts 279°
2026-05-08 07:54 40.69556 -1.94018 35003 ft 432 kts 279°
2026-05-08 07:55 40.71110 -2.01686 34988 ft 434 kts 279°
2026-05-08 07:55 40.72658 -2.09395 34977 ft 435 kts 279°
2026-05-08 07:56 40.74193 -2.17071 34979 ft 436 kts 279°
2026-05-08 07:56 40.75738 -2.24815 34982 ft 437 kts 279°
2026-05-08 07:57 40.77284 -2.32574 35000 ft 438 kts 279°
2026-05-08 07:57 40.78835 -2.40366 34976 ft 441 kts 279°
2026-05-08 07:58 40.80384 -2.48212 34972 ft 442 kts 279°
2026-05-08 07:58 40.81927 -2.56078 34974 ft 443 kts 279°
2026-05-08 07:59 40.83471 -2.63961 34972 ft 444 kts 279°
2026-05-08 07:59 40.85014 -2.71857 34989 ft 445 kts 279°
2026-05-08 08:00 40.86557 -2.79782 34973 ft 446 kts 279°
2026-05-08 08:00 40.88102 -2.87729 34976 ft 447 kts 279°
2026-05-08 08:01 40.89645 -2.95688 34973 ft 447 kts 279°
2026-05-08 08:01 40.91177 -3.03665 34974 ft 448 kts 279°
2026-05-08 08:02 40.92697 -3.11662 34979 ft 449 kts 279°
2026-05-08 08:02 40.94225 -3.19687 34971 ft 451 kts 279°
2026-05-08 08:03 40.95760 -3.27732 34960 ft 451 kts 279°
2026-05-08 08:03 40.97284 -3.35795 34958 ft 452 kts 279°
2026-05-08 08:04 40.98801 -3.43868 34999 ft 452 kts 279°
2026-05-08 08:04 41.00319 -3.51968 34960 ft 454 kts 279°
2026-05-08 08:05 41.01838 -3.60099 34955 ft 456 kts 279°
2026-05-08 08:05 41.03364 -3.68247 34931 ft 456 kts 279°
2026-05-08 08:06 41.04873 -3.76412 34928 ft 456 kts 279°
2026-05-08 08:06 41.06367 -3.84579 34955 ft 457 kts 279°
2026-05-08 08:07 41.07868 -3.92771 34927 ft 458 kts 279°
2026-05-08 08:07 41.09375 -4.00973 34926 ft 459 kts 279°
2026-05-08 08:08 41.10877 -4.09190 34915 ft 459 kts 279°
2026-05-08 08:08 41.12358 -4.17358 34914 ft 459 kts 279°
2026-05-08 08:09 41.13841 -4.25588 34914 ft 458 kts 279°
2026-05-08 08:09 41.15311 -4.33820 34911 ft 459 kts 279°
2026-05-08 08:10 41.16790 -4.42055 34915 ft 459 kts 279°
2026-05-08 08:10 41.18258 -4.50298 34916 ft 459 kts 279°
2026-05-08 08:11 41.19715 -4.58544 34952 ft 459 kts 279°
2026-05-08 08:11 41.21172 -4.66801 34911 ft 459 kts 279°
2026-05-08 08:12 41.22627 -4.75065 34898 ft 460 kts 279°
2026-05-08 08:12 41.24065 -4.83354 34895 ft 460 kts 278°
2026-05-08 08:13 41.25500 -4.91647 34904 ft 461 kts 278°
2026-05-08 08:13 41.26949 -4.99960 34919 ft 462 kts 278°
2026-05-08 08:14 41.28398 -5.08302 34905 ft 463 kts 278°
2026-05-08 08:14 41.29838 -5.16661 34900 ft 464 kts 278°
2026-05-08 08:15 41.31265 -5.25033 34905 ft 464 kts 278°
2026-05-08 08:15 41.32688 -5.33420 34932 ft 465 kts 278°
2026-05-08 08:16 41.34112 -5.41821 34913 ft 466 kts 278°
2026-05-08 08:16 41.35529 -5.50194 34908 ft 467 kts 278°
2026-05-08 08:17 41.36944 -5.58634 34912 ft 468 kts 278°
2026-05-08 08:17 41.38361 -5.67152 34914 ft 468 kts 278°
2026-05-08 08:18 41.39748 -5.75567 34941 ft 469 kts 278°
2026-05-08 08:18 41.41152 -5.84051 34934 ft 469 kts 278°
2026-05-08 08:19 41.42558 -5.92546 34928 ft 470 kts 278°
2026-05-08 08:19 41.43950 -6.01060 34925 ft 470 kts 277°
2026-05-08 08:20 41.45332 -6.09586 34946 ft 471 kts 277°
2026-05-08 08:20 41.46717 -6.18113 34932 ft 471 kts 277°
2026-05-08 08:21 41.48084 -6.26655 34926 ft 470 kts 275°
2026-05-08 08:21 41.48554 -6.35260 34917 ft 464 kts 267°
2026-05-08 08:22 41.48825 -6.43858 34913 ft 465 kts 267°
2026-05-08 08:22 41.48965 -6.48175 34706 ft 466 kts 267°
2026-05-08 08:22 41.49104 -6.52499 34467 ft 468 kts 267°
2026-05-08 08:22 41.49240 -6.56843 34227 ft 470 kts 267°
2026-05-08 08:23 41.49372 -6.61208 33994 ft 472 kts 267°
2026-05-08 08:23 41.49504 -6.65597 33733 ft 474 kts 267°
2026-05-08 08:23 41.49634 -6.69997 33456 ft 475 kts 267°
2026-05-08 08:23 41.49763 -6.74415 32498 ft 480 kts 267°
2026-05-08 08:24 41.49893 -6.78860 31936 ft 475 kts 267°
2026-05-08 08:24 41.50026 -6.83242 31316 ft 471 kts 267°
2026-05-08 08:24 41.50154 -6.87593 30690 ft 469 kts 267°
2026-05-08 08:24 41.50275 -6.91925 30060 ft 466 kts 267°
2026-05-08 08:25 41.50393 -6.96237 29378 ft 463 kts 267°
2026-05-08 08:25 41.50510 -7.00498 28779 ft 457 kts 267°
2026-05-08 08:25 41.50622 -7.04664 28182 ft 453 kts 267°
2026-05-08 08:25 41.50731 -7.08840 27592 ft 448 kts 267°
2026-05-08 08:26 41.50836 -7.12976 27009 ft 444 kts 268°
2026-05-08 08:26 41.50942 -7.17074 26435 ft 440 kts 268°
2026-05-08 08:26 41.51048 -7.21136 25884 ft 436 kts 268°
2026-05-08 08:26 41.51152 -7.25157 25339 ft 432 kts 268°
2026-05-08 08:27 41.51252 -7.29143 24807 ft 428 kts 268°
2026-05-08 08:27 41.51347 -7.33091 24288 ft 424 kts 268°
2026-05-08 08:27 41.51436 -7.37002 23781 ft 420 kts 268°
2026-05-08 08:27 41.51525 -7.40881 23230 ft 417 kts 269°
2026-05-08 08:28 41.51616 -7.44729 22714 ft 412 kts 269°
2026-05-08 08:28 41.51709 -7.48526 22218 ft 408 kts 269°
2026-05-08 08:28 41.51798 -7.52290 21721 ft 405 kts 269°
2026-05-08 08:28 41.51882 -7.56028 21228 ft 401 kts 268°
2026-05-08 08:29 41.51961 -7.59732 20728 ft 398 kts 268°
2026-05-08 08:29 41.52037 -7.63416 20215 ft 396 kts 268°
2026-05-08 08:29 41.52112 -7.67076 19681 ft 394 kts 268°
2026-05-08 08:29 41.52224 -7.70726 19168 ft 393 kts 270°
2026-05-08 08:30 41.52332 -7.73139 18819 ft 393 kts 270°
2026-05-08 08:30 41.52524 -7.76766 18295 ft 391 kts 271°
2026-05-08 08:30 41.52939 -7.83966 17217 ft 386 kts 271°
2026-05-08 08:31 41.53136 -7.87529 16711 ft 384 kts 270°
2026-05-08 08:31 41.53319 -7.91065 16202 ft 381 kts 270°
2026-05-08 08:31 41.53493 -7.94584 15706 ft 378 kts 269°
2026-05-08 08:31 41.53660 -7.98068 15268 ft 374 kts 269°
2026-05-08 08:32 41.53823 -8.01525 14833 ft 371 kts 269°
2026-05-08 08:32 41.53983 -8.04953 14363 ft 368 kts 269°
2026-05-08 08:32 41.54145 -8.08348 13839 ft 367 kts 269°
2026-05-08 08:32 41.54305 -8.11714 13495 ft 360 kts 269°
2026-05-08 08:33 41.54464 -8.15006 12750 ft 350 kts 269°
2026-05-08 08:33 41.54619 -8.18171 12300 ft 333 kts 268°
2026-05-08 08:33 41.54766 -8.21183 11851 ft 318 kts 268°
2026-05-08 08:33 41.54904 -8.24085 11429 ft 312 kts 268°
2026-05-08 08:34 41.55032 -8.26968 10998 ft 311 kts 268°
2026-05-08 08:34 41.55160 -8.29854 10564 ft 311 kts 268°
2026-05-08 08:34 41.55286 -8.32739 10126 ft 311 kts 268°
2026-05-08 08:34 41.55412 -8.35595 9904 ft 307 kts 269°
2026-05-08 08:35 41.55536 -8.38433 9705 ft 303 kts 268°
2026-05-08 08:35 41.55648 -8.41203 9427 ft 295 kts 268°
2026-05-08 08:35 41.55607 -8.43896 9130 ft 286 kts 259°
2026-05-08 08:35 41.55354 -8.46493 8781 ft 281 kts 258°
2026-05-08 08:36 41.55124 -8.49079 8361 ft 280 kts 260°
2026-05-08 08:36 41.54938 -8.51666 7920 ft 278 kts 261°
2026-05-08 08:36 41.54757 -8.54178 7349 ft 265 kts 262°
2026-05-08 08:36 41.54569 -8.56606 6572 ft 264 kts 261°
2026-05-08 08:37 41.54306 -8.59078 5846 ft 274 kts 258°
2026-05-08 08:37 41.53963 -8.61561 5377 ft 275 kts 258°
2026-05-08 08:37 41.53624 -8.64039 5072 ft 268 kts 258°
2026-05-08 08:37 41.53295 -8.66476 4671 ft 267 kts 258°
2026-05-08 08:38 41.52967 -8.68910 4276 ft 264 kts 258°
2026-05-08 08:38 41.52649 -8.71279 4082 ft 254 kts 258°
2026-05-08 08:38 41.52163 -8.73445 4018 ft 235 kts 233°
2026-05-08 08:38 41.50921 -8.74562 4037 ft 209 kts 185°
2026-05-08 08:39 41.49542 -8.74327 3962 ft 198 kts 168°
2026-05-08 08:39 41.48165 -8.74035 3605 ft 203 kts 176°
2026-05-08 08:39 41.46749 -8.73923 3273 ft 204 kts 176°
2026-05-08 08:39 41.45389 -8.73627 3204 ft 191 kts 166°
2026-05-08 08:40 41.44160 -8.73191 3233 ft 173 kts 168°
2026-05-08 08:40 41.43050 -8.72841 3179 ft 158 kts 168°
2026-05-08 08:40 41.41980 -8.72581 2919 ft 157 kts 174°
2026-05-08 08:40 41.40876 -8.72407 2755 ft 165 kts 174°
2026-05-08 08:41 41.39712 -8.72146 2598 ft 174 kts 169°
2026-05-08 08:41 41.38539 -8.71765 2448 ft 171 kts 167°
2026-05-08 08:41 41.37388 -8.71415 2197 ft 168 kts 169°
2026-05-08 08:41 41.36244 -8.71129 1906 ft 166 kts 170°
2026-05-08 08:42 41.35111 -8.70874 1700 ft 165 kts 170°
2026-05-08 08:42 41.34003 -8.70534 1518 ft 159 kts 166°
2026-05-08 08:42 41.32983 -8.70203 1429 ft 142 kts 170°
2026-05-08 08:42 41.32001 -8.69984 1225 ft 141 kts 172°
2026-05-08 08:43 41.31048 -8.69797 1064 ft 136 kts 170°
2026-05-08 08:43 41.30145 -8.69552 897 ft 129 kts 167°
2026-05-08 08:43 41.29276 -8.69310 755 ft 130 kts 169°
2026-05-08 08:43 41.28388 -8.69066 624 ft 130 kts 167°
2026-05-08 08:44 41.27501 -8.68828 432 ft 129 kts 167°
2026-05-08 08:44 41.26623 -8.68605 310 ft 128 kts 167°
2026-05-08 08:44 41.25753 -8.68374 180 ft 125 kts 168°
2026-05-08 08:44 41.25017 -8.68178 192 ft 86 kts 169°
2026-05-08 08:45 41.24570 -8.68062 209 ft 54 kts 169°
2026-05-08 08:45 41.24241 -8.67977 220 ft 43 kts 169°
2026-05-08 08:45 41.23984 -8.67909 220 ft 24 kts 168°
2026-05-08 08:45 41.23895 -8.67802 222 ft 19 kts 89°
2026-05-08 08:46 41.23915 -8.67649 231 ft 15 kts 77°
2026-05-08 08:46 41.23927 -8.67577 235 ft 3 kts 79°
2026-05-08 08:46 41.23928 -8.67566 235 ft 3 kts 84°
2026-05-08 08:46 41.23920 -8.67526 237 ft 7 kts 122°
2026-05-08 08:47 41.23872 -8.67489 239 ft 9 kts 164°
2026-05-08 08:47 41.23807 -8.67471 239 ft 11 kts 169°
2026-05-08 08:47 41.23758 -8.67448 239 ft 3 kts 131°
2026-05-08 08:47 41.23757 -8.67432 240 ft 2 kts 91°
2026-05-08 08:48 41.23768 -8.67404 241 ft 2 kts 51°
2026-05-08 08:48 41.23769 -8.67402 241 ft 0 kts 51°
2026-05-08 08:48 41.23775 -8.67393 242 ft 2 kts 50°
2026-05-08 08:48 41.23779 -8.67386 242 ft 2 kts 49°
2026-05-08 08:49 41.23787 -8.67375 243 ft 2 kts 49°
2026-05-08 08:49 41.23793 -8.67366 244 ft 4 kts 49°
2026-05-08 08:49 41.23794 -8.67364 244 ft 0 kts 49°
2026-05-08 08:50 41.23794 -8.67363 244 ft 0 kts 49°